Regional Weather Roundup
Issued by NWS Sioux Falls, SD

Home | Current Version | Previous Version | Text Only | Print | Product List | Glossary On
Versions: 1 2 3 4 5 6 7 8 9 10 11 12 13 14 15 16 17 18 19 20 21 22 23 24 25 26 27 28 29 30 31 32 33 34 35 36 37 38 39 40 41 42 43 44 45 46 47 48 49 50
000
ASUS43 KFSD 050510
RWRFSD

WEATHER ROUNDUP FOR SE SOUTH DAKOTA/SW MINNESOTA/NW IOWA
NATIONAL WEATHER SERVICE SIOUX FALLS SD
1200 AM CDT TUE MAY 05 2015

NOTE: "FAIR" INDICATES FEW OR NO CLOUDS BELOW 12,000 FEET WITH NO
SIGNIFICANT WEATHER AND OR OBSTRUCTIONS TO VISIBILITY.


SDZ038>040-050-052>070-050600-
SOUTHEAST SOUTH DAKOTA

CITY           SKY/WX    TMP DP  RH WIND       PRES   REMARKS
BROOKINGS      CLEAR     55  27  33 E7        30.17R
CHAMBERLAIN    PTCLDY    50  35  55 SE6       30.11R
HURON          CLEAR     55  30  38 E9        30.13R
MADISON        FAIR      50  25  37 E7        30.16R
MITCHELL       CLEAR     55  35  47 S5        30.13R
SIOUX FALLS    PTCLDY    54  29  38 E6        30.15R
WINNER         MOCLDY    57  33  40 S7        30.12R
YANKTON        CLOUDY    55  45  67 CALM      30.13S
$$

MNZ071-072-080-081-089-090-097-098-050600-
SOUTHWEST MINNESOTA

CITY           SKY/WX    TMP DP  RH WIND       PRES   REMARKS
FAIRMONT       PTCLDY    55  30  38 NE7       30.15S
JACKSON        PTCLDY    52  30  43 E9        30.16S
LUVERNE        PTCLDY    52  30  43 E5        30.16R
MARSHALL       PTCLDY    55  28  35 SE6       30.17R
MONTEVIDEO     PTCLDY    52  30  43 SE6       30.18S
REDWOOD FALLS  PTCLDY    59  27  29 E7        30.18R
TRACY          PTCLDY    53  31  42 CALM      30.18R
WORTHINGTON    PTCLDY    50  27  40 E3        30.17R
$$

IAZ001>003-012>014-020>022-031-032-NEZ013-014-SDZ071-050600-
NORTHWEST IOWA

CITY           SKY/WX    TMP DP  RH WIND       PRES   REMARKS
CHEROKEE       CLOUDY    55  50  82 CALM      30.14R
DENISON        CLOUDY    55  55 100 NE9       30.09S
ESTHERVILLE    MOCLDY    49  35  58 NE7       30.15R
LE MARS        CLOUDY    54  46  76 CALM      30.15S
ORANGE CITY    CLOUDY    55  41  58 CALM      30.14S
SHELDON        MOCLDY    54  39  58 E6        30.14R
SIOUX CITY     CLOUDY    59  48  67 CALM      30.13S
SPENCER        MOCLDY    53  42  66 NE7       30.15R
STORM LAKE     CLOUDY    55  52  88 NE9       30.14R
$$

ABBREVIATIONS USED IN REMARKS
   TC - TEMPERATURE IN CELSIUS
  WCI - WIND CHILL INDEX
   HX - HEAT INDEX
  VSB - VISIBILITY



USA.gov is the U.S. government's official web portal to all federal, state and local government web resources and services.